Location: Chełm
(51.1339°N, 23.4725°E)
Time: 19:21:28
(UTC+01:00)

ISS - Visible Passes

Search period start: 22 February 2018 00:00
Search period end: 04 March 2018 00:00
Orbit: 402 x 407 km, 51.6° (Epoch: 23 February)

Date Brightness Start Highest point End Pass type
(mag) Time Alt. Az. Time Alt. Az. Time Alt. Az.
27 Feb -1.1 05:34:37 10° S 05:36:58 18° SE 05:39:20 10° E visible
28 Feb -0.8 04:43:40 10° SSE 04:44:56 12° SE 04:46:11 10° ESE visible
01 Mar -2.2 05:25:38 10° SW 05:28:35 32° SSE 05:31:33 10° E visible
02 Mar -1.6 04:34:05 11° SSW 04:36:26 21° SE 04:39:01 10° E visible
03 Mar -1.2 03:44:04 14° SE 03:44:20 14° SE 03:46:07 10° ESE visible
03 Mar -3.2 05:17:03 10° SW 05:20:16 53° SSE 05:23:29 10° E visible
